Overview Statistics Trail Chart Weather Telemetry Raw packets
 

This is the latest recevied weather packets stored in our database for station/object N8BAP. If no packets are shown the sender has not sent any weather packets the latest 10 day(s).

<< 23 24 25 26 27 28 29 >>
Time Temp. Humidity Pressure Rain* Wind** Luminosity Snow
1788463748 33.89° C 53% 1021.5 hPa 0 mm - 603 W/m² -
1788463445 33.89° C 55% 1021.5 hPa 0 mm - 600 W/m² -
1788463141 33.89° C 53% 1021.7 hPa 0 mm - 642 W/m² -
1788462836 34.44° C 52% 1021.8 hPa 0 mm - 435 W/m² -
1788462536 33.89° C 53% 1021.9 hPa 0 mm - 593 W/m² -
1788462230 33.89° C 54% 1021.6 hPa 0 mm - 620 W/m² -
1788461929 33.89° C 53% 1022.1 hPa 0 mm - 659 W/m² -
1788461624 33.89° C 51% 1021.7 hPa 0 mm - 646 W/m² -
1788461321 33.89° C 54% 1021.8 hPa 0 mm - 660 W/m² -
1788461018 32.78° C 55% 1021.8 hPa 0 mm - 683 W/m² -
1788460712 32.78° C 61% 1021.8 hPa 0 mm - 664 W/m² -
1788460407 33.89° C 56% 1021.8 hPa 0 mm - 156 W/m² -
1788460106 33.89° C 57% 1021.8 hPa 0 mm - 646 W/m² -
1788459800 33.89° C 55% 1021.8 hPa 0 mm - 649 W/m² -
1788459500 33.89° C 54% 1022.3 hPa 0 mm - 155 W/m² -
1788459195 33.89° C 55% 1022.1 hPa 0 mm - 612 W/m² -
1788458894 33.33° C 55% 1022.1 hPa 0 mm - 621 W/m² -
1788458594 33.33° C 56% 1022.3 hPa 0 mm - 636 W/m² -
1788458294 33.33° C 55% 1022.3 hPa 0 mm - 616 W/m² -
1788457993 33.33° C 54% 1022.2 hPa 0 mm - 632 W/m² -
1788457688 33.33° C 54% 1022.3 hPa 0 mm - 639 W/m² -
1788457383 33.33° C 56% 1022.6 hPa 0 mm - 622 W/m² -
1788457077 32.78° C 57% 1022.6 hPa 0 mm - 640 W/m² -
1788456773 33.33° C 55% 1022.5 hPa 0 mm - 660 W/m² -
1788456468 33.33° C 57% 1022.6 hPa 0 mm - 603 W/m² -

* Rain latest hour (hover to see other rain measurements)
** Current wind speed in m/s (hover to see current wind gust speed)